GOES 8 [-]

Last updated on Aug. 14, 2020, 5:30 a.m. UTC

1 23051U 94022A   20226.49394295  .00000033  00000-0  00000+0 0  9990
2 23051  12.5900  29.1184 0005074 352.5812 193.4439  0.98902490103016
UTC
Height (km)
Latitude
Longitude
Inclination
Orbital Period
UTC large
Height (km)
Speed (km/s)
/
Latitude / Longitude
Inclination (degrees)
Orbital Period (minutes)
Azimuth
Elevation
Range (km)
Doppler Factor
iOS Compass Heading
iOS Angle

Next 30 passes for location: Hong Kong

Rise time Rise Azimuth (degrees) Set time Set Azimuth (degrees) Duration Max altitude (degrees)

No matching passes for this satellites